Погода в Ейске

Россия / Краснодарский край     46°42′41″N   38°16′35″E
темп.,
°C
ветер,
м/с
пор.,
м/с
влажн.,
%
обл.,
%
осадки,
мм/ч
давл.,
гПа
погр.,
м
17 августа, ср
ср1700:00+25з35805 0.1 1010292
03:00+25з348031 0.1 1010334
06:00+24зюз34790 0.0 1009252
09:00+26з34730 0.0 1009486
12:00+26зсз45724 0.0 1009554
15:00+27з666979 0.0 1009503
18:00+27з67701 0.0 1009360
21:00+25зюз56754 0.0 1009215
18 августа, чт
чт1800:00+25з57755 0.0 1008301
03:00+25з46790 0.0 1008245
06:00+25з33790 0.0 1008186
09:00+26зюз22675 0.0 1009320
12:00+26зсз546645 0.0 1009484
15:00+26з656631 0.0 1008385
18:00+26з787115 0.0 1007320
21:00+26з46715 0.0 100798
19 августа, пт
пт1900:00+26зсз46735 0.0 1008143
03:00+25зюз33715 0.0 100787
06:00+25ююз337137 0.0 1007106
09:00+26зюз22640 0.0 1008280
12:00+27сз32600 0.0 1009472
15:00+27сз326030 0.1 1009202
18:00+28сз1160100 0.3 1008104
21:00+22зюз4484100 1.8 1010191
20 августа, сб
сб2000:00+22зюз2285100 4.4 101088
03:00+24св71080100 4.4 1010487
06:00+22в89754 0.4 1011412
09:00+23в4569100 0.6 1011523
12:00+27юв356341 0.2 1011338
15:00+28вюв785737 0.2 1011424
18:00+28св345758 0.0 1010261
21:00+26всв81361100 0.1 1010405
21 августа, вс
вс2100:00+24вюв101562100 0.8 1011566
03:00+24вюв101455100 0.8 1011718
06:00+23в101354100 0.0 1011696
09:00+24в10124999 0.0 1011927
12:00+27в7104967 0.0 1010480
15:00+29в465048 0.0 1009434
18:00+30вюв811459 0.0 1008501
21:00+28в9144088 0.1 1009372